Location: Schommer Observatory
(40.5200°N, 74.4500°W)
Time: 16:21:20
(UTC-04:00)

Envisat - Visible Passes

Search period start: 18 July 2018 00:00
Search period end: 28 July 2018 00:00
Orbit: 764 x 766 km, 98.2° (Epoch: 18 July)

Date Brightness Start Highest point End Pass type
(mag) Time Alt. Az. Time Alt. Az. Time Alt. Az.
19 Jul 6.1 21:49:18 10° W 21:49:53 10° W 21:50:27 10° W visible
20 Jul 5.2 21:08:41 10° SSW 21:12:45 24° W 21:16:50 10° NW visible
22 Jul 5.7 21:36:07 10° WSW 21:38:34 13° W 21:41:02 10° WNW visible
23 Jul 4.9 20:57:04 10° SSW 21:01:30 30° W 21:05:58 10° NW visible
25 Jul 5.6 21:23:59 10° SW 21:27:17 17° W 21:30:37 10° NW visible
26 Jul 4.5 20:45:34 10° SSW 20:50:16 38° W 20:55:01 10° NNW visible
